SCP
0 0 0 0 0 0 0 0 0 0 0 0 0 0 0 0 0 0 0 0 0 0 0 0 0 0 0 0 0 0 0 0 0 0 0 0 0 0 0 0 0 0 0 0 0 0 0 0 0 1 0 0 0 0
0 0 0 0 0 0 0 0 0 0 0 0 0 0 0 0 0 0 0 0 0 0 0 0 0 0 0 0 0 0 0 0 0 0 0 0 0 0 0 0 0 0 0 0 0 0 0 0 0 0 0 0 0 0
0 0 0 0 0 0 0 0 0 0 0 0 0 0 0 0 0 0 0 0 0 0 0 0 0 0 0 0 0 0 0 0 0 0 0 0 0 0 0 0 0 0 0 0 0 0 0 0 0 0 0 0 0 0
0 0 0 0 0 0 0 0 0 0 0 0 0 0 0 0 0 0 0 0 0 0 0 0 0 0 0 0 0 0 0 0 0 0 0 0 0 0 0 0 0 0 0 0 0 0 0 0 0 0 0 0 0 0
0 0 0 0 0 0 0 0 0 0 0 0 0 0 0 0 0 0 0 0 0 0 0 0 0 0 0 0 0 0 0 0 0 0 0 0 0 0 0 0 0 0 0 0 0 0 0 0 0 0 0 0 0 0
0 0 0 0 0 0 0 -0 0 0 0 0 0 0 0 0 0 0 0 0 0 0 0 0 0 0 0 0 0 0 0 0 0 0 0 0 0 0 0 0 0 0 0 0 0 0 0 0 0 0 0 0 0 0
0 0 0 0 0 0 0 -0 -0 0 0 0 0 0 0 0 0 0 0 0 0 0 0 0 0 0 0 0 0 0 0 0 0 0 0 0 0 0 0 0 0 0 0 0 -0 -0 -0 0 0 0 -0 0 0 0
0 0 0 0 0 0 0 0 0 0 0 0 0 0 0 -0 0 0 0 0 0 0 0 0 0 0 0 0 0 0 0 0 0 0 0 0 0 0 0 0 0 0 0 -0 -0 0 0 0 0 0 0 0 -0 0
0 0 0 0 0 0 0 0 0 0 0 0 0 0 0 0 0 0 0 0 0 0 0 0 0 0 0 0 0 0 0 0 0 0 0 0 0 0 0 0 0 0 -0 0 0 0 0 0 0 0 0 -0 -0 0
0 0 0 0 0 0 0 0 0 0 0 0 0 0 0 0 0 0 0 0 0 0 0 0 0 0 0 0 0 0 0 0 0 0 0 0 0 0 0 0 0 0 -0 -0 -0 -0 -0 0 0 0 0 0 0 0
0 0 0 0 0 0 0 0 0 0 0 0 0 0 0 0 0 0 0 0 0 0 0 0 0 0 0 0 0 0 0 0 0 0 0 0 0 0 0 0 0 0 0 -0 -0 -0 0 0 0 0 0 0 0 0
0 0 0 0 0 0 0 0 0 0 0 0 0 0 0 0 0 0 0 0 0 0 0 0 0 0 0 0 0 0 -0 -0 0 0 0 0 0 0 0 0 -0 0 -0 -0 -0 -0 -0 -0 -0 0 0 0 0 0
0 0 0 0 0 0 0 0 0 0 0 0 0 0 0 0 0 0 0 0 0 0 0 0 0 0 0 0 0 -0 -0 0 -0 0 0 0 0 0 0 0 -0 -0 -0 -0 -0 -0 0 0 -0 -0 0 -0 0 0
0 0 0 0 0 0 0 0 0 0 0 0 0 0 0 0 0 0 0 0 0 0 0 0 0 0 0 0 -0 0 -0 -0 -0 0 0 0 0 0 -0 0 -0 -0 -0 -0 -0 -0 0 0 0 0 0 0 0 -0
0 0 0 0 0 0 0 0 0 0 0 0 0 0 0 0 0 0 0 0 0 0 0 0 0 0 0 0 -0 -0 -0 0 0 0 0 0 0 0 -0 -0 -0 -0 -0 -0 -0 0 -0 0 0 0 0 0 -0 0
0 0 0 0 0 0 0 0 0 0 0 0 0 0 0 0 0 0 0 0 0 0 0 0 0 0 0 -0 0 -0 -0 0 0 0 0 0 0 0 0 0 0 -0 -0 -0 -0 -0 -0 -0 0 0 0 0 0 0
0 0 0 0 0 0 0 0 0 0 0 0 0 0 0 0 0 0 0 0 0 0 0 0 0 -0 0 0 -0 -0 -0 0 -0 0 0 0 0 0 0 0 0 0 -0 -0 -0 -0 -0 0 0 0 0 0 0 0
0 0 0 0 0 0 0 0 0 0 0 0 0 0 0 0 0 0 0 0 0 0 0 0 0 0 0 0 -0 -0 -0 -0 0 0 0 0 0 0 0 0 0 0 0 -0 0 0 0 0 0 0 0 0 0 0
0 0 0 0 0 0 0 0 0 0 0 0 0 0 0 0 0 0 0 0 0 0 0 0 0 0 0 0 -0 0 -0 -0 -0 0 0 0 0 0 0 0 0 0 0 -0 -0 0 0 0 0 0 0 0 0 0
0 0 0 0 0 0 0 0 0 0 0 0 0 0 0 0 0 0 0 0 0 0 0 0 0 0 0 0 0 0 -0 -0 -0 -0 0 0 0 0 0 0 -0 -0 0 0 -0 0 0 0 0 0 0 0 0 0
0 0 0 0 0 0 0 0 0 0 0 0 0 0 0 0 0 0 0 0 0 0 0 0 0 0 0 0 0 0 -0 -0 -0 0 -0 0 0 0 0 0 0 0 0 0 0 0 0 0 0 0 0 -0 0 0
0 0 0 0 0 0 0 0 0 0 0 0 0 0 0 0 0 0 0 0 0 0 0 0 0 0 0 0 0 0 -0 -0 -0 -0 -0 0 0 0 0 0 0 0 0 -0 0 0 0 0 0 0 -0 -0 -0 0
0 0 0 0 0 0 0 0 0 0 0 0 0 0 0 0 0 0 0 0 0 0 0 0 0 0 0 0 0 0 0 -0 -0 -0 -0 -0 -0 -0 0 -0 0 0 0 0 -0 0 0 0 0 0 -0 -0 -0 -0
0 0 0 0 0 0 0 0 0 0 0 0 0 0 0 0 0 0 0 0 0 0 0 0 0 0 0 0 0 0 0 -0 -0 0 -0 -0 -0 0 -0 -0 -0 0 0 0 0 0 0 0 0 0 -0 -0 -0 -0
0 0 0 0 0 0 0 0 0 0 0 0 0 0 0 0 0 0 0 0 0 0 0 0 0 0 0 0 0 0 0 0 0 -0 0 -0 -0 -0 -0 -0 -0 0 0 -0 -0 0 0 0 0 0 -0 -0 -0 -0
0 0 0 0 0 0 0 0 0 0 0 0 0 0 0 0 0 0 0 0 0 0 0 0 0 0 0 0 0 0 0 0 -0 -0 -0 -0 -0 -0 -0 -0 0 0 0 -0 -0 0 0 0 0 -0 -0 -0 -0 -0
0 0 0 0 0 0 0 0 0 0 0 0 0 0 0 0 0 0 0 0 0 0 0 -0 -0 -0 0 0 0 -0 -0 -0 -0 -0 -0 -0 -0 -0 -0 0 -0 0 0 0 -0 -0 -0 0 0 0 0 -0 -0 -0
0 0 0 0 -0 -0 -0 0 -0 -0 0 0 0 0 0 0 0 0 0 0 0 0 0 0 -0 -0 -0 -0 -0 -0 -0 -0 -0 0 -0 -0 0 -0 -0 -0 -0 0 0 -0 -0 -0 -0 0 -0 -0 -0 -0 -0 -0
0 0 0 0 0 0 0 -0 -0 -0 0 0 -0 0 0 0 0 0 0 0 0 0 0 0 0 -0 -0 -0 -0 -0 -0 0 0 0 0 0 -0 -0 0 -0 -0 -0 -0 -0 0 0 0 0 0 -0 -0 0 0 0
0 -0 0 0 0 0 0 0 0 0 0 -0 -0 -0 0 0 0 0 0 0 0 0 0 -0 -0 -0 -0 0 0 0 0 0 0 -0 -0 -0 -0 -0 -0 -0 -0 -0 -0 -0 -0 -0 0 0 0 -0 0 0 0 0
0 -0 0 0 -0 0 -0 0 0 0 0 -0 -0 -0 0 -0 -0 -0 -0 -0 -0 -0 -0 -0 0 0 0 0 0 0 0 0 0 -0 0 0 -0 0 -0 -0 -0 -0 -0 -0 -0 -0 -0 -0 -0 -0 -0 -0 -0 -0
0 -0 -0 0 0 -0 0 0 0 0 0 0 -0 -0 0 0 -0 -0 -0 -0 -0 -0 0 0 0 0 0 0 0 0 0 -0 0 0 -0 -0 0 0 0 -0 -0 -0 -0 -0 -0 -0 -0 -0 -0 -0 -0 -0 -0 -0
0 0 0 0 0 0 -0 -0 -0 -0 -0 -0 -0 -0 -0 -0 -0 -0 -0 0 0 0 0 0 0 0 0 0 -0 0 0 0 0 0 0 0 0 -0 0 -0 0 0 0 0 0 0 0 0 0 0 -0 -0 -0 -0
Wind_Speed_500mb
28 26 26 26 26 25 26 27 29 22 24 26 28 29 30 28 26 23 17 26 20 10 33 12 6 8 7 5 5 8 10 8 8 8 4 3 0 4 5 6 6 6 4 5 3 6 12 21 16 3 8 11 13 19
27 25 24 24 24 24 24 25 26 23 23 24 24 27 29 28 27 27 23 25 24 22 21 40 37 6 14 33 28 8 4 4 6 7 0 2 3 4 3 6 7 5 7 5 10 9 10 33 26 32 32 34 26 27
27 25 23 23 24 24 23 26 26 23 22 21 21 23 27 29 29 30 32 28 31 15 27 7 8 8 21 12 19 9 6 7 10 11 12 4 5 6 5 9 6 7 5 7 5 8 16 47 63 55 42 51 44 34
27 26 24 23 23 25 25 25 24 24 21 20 19 22 26 28 30 33 27 19 22 13 8 9 10 30 15 14 25 35 34 30 20 20 8 6 7 20 8 11 12 15 6 9 14 29 54 67 38 44 45 43 50 47
28 27 27 27 26 26 24 24 26 21 20 19 19 25 30 29 29 27 12 8 13 14 8 28 22 14 18 6 24 35 37 29 21 12 6 7 9 4 10 2 11 18 12 8 14 40 34 55 52 66 66 63 50 41
28 29 29 30 29 24 20 20 21 21 21 18 21 28 30 33 29 17 2 2 11 12 11 8 20 12 20 8 2 10 20 32 30 16 12 10 11 9 5 7 20 34 37 45 46 64 56 64 67 67 60 49 44 37
28 30 30 30 24 20 18 15 19 20 22 19 22 27 30 29 12 11 6 14 16 17 5 14 22 14 27 18 17 13 23 16 23 20 12 10 12 16 5 15 41 36 28 34 21 30 42 50 51 44 50 44 45 37
28 29 28 23 21 20 19 19 23 22 20 19 22 25 24 6 2 13 21 16 14 6 4 3 10 19 18 12 13 9 15 14 8 7 3 7 4 10 8 11 13 18 37 14 42 43 37 37 36 37 38 33 38 51
28 28 26 23 21 20 20 21 19 19 19 18 20 22 7 2 8 20 27 16 5 2 1 1 3 7 19 8 11 10 7 4 3 4 6 6 5 9 10 2 19 33 34 55 65 58 40 30 31 27 31 27 34 42
28 27 24 21 20 20 18 17 18 16 14 14 16 6 2 11 21 22 6 6 2 3 5 8 8 6 9 9 7 12 7 5 5 5 4 6 7 34 6 28 53 52 58 54 50 52 36 45 34 27 28 30 39 30
27 23 21 19 18 20 17 12 15 11 7 6 4 3 7 19 10 4 4 3 3 5 9 10 14 7 6 2 5 5 5 4 5 1 4 5 5 2 37 67 77 73 72 62 52 54 52 47 45 38 32 30 26 19
27 22 19 19 19 16 9 12 14 11 7 5 12 15 8 3 3 2 4 6 6 7 9 10 9 12 7 6 3 4 4 5 8 18 5 6 3 33 61 75 78 75 65 57 43 49 50 48 42 38 31 35 29 16
26 21 20 20 19 15 16 17 14 12 9 8 2 3 2 4 5 5 4 5 5 8 10 11 8 6 5 4 5 2 4 8 27 2 5 6 44 65 73 73 74 69 57 37 31 35 42 43 41 39 38 36 34 25
23 23 22 20 18 19 20 19 14 10 6 3 3 6 7 7 9 9 8 5 11 7 24 25 10 9 4 1 2 4 5 6 5 5 7 12 68 79 82 77 66 61 51 37 28 20 28 33 35 37 36 33 27 29
26 25 25 23 20 21 21 20 16 12 5 5 6 7 11 19 16 18 25 23 18 19 24 9 2 7 3 2 3 3 5 5 3 7 11 53 78 89 76 68 59 50 40 42 33 24 24 25 30 34 35 33 30 26
27 26 24 22 22 24 21 23 19 14 5 7 12 7 16 10 14 17 28 16 6 17 23 4 4 2 4 2 2 3 3 5 7 10 58 75 80 80 71 57 58 55 51 48 43 29 25 32 33 33 28 30 28 28
29 29 25 24 24 25 25 23 14 10 9 8 13 20 32 36 29 27 12 17 23 17 4 1 3 5 3 2 3 6 5 8 47 61 69 64 70 72 64 59 55 55 59 55 46 29 10 18 22 23 21 20 24 21
37 32 28 30 29 31 32 16 9 8 12 20 15 21 20 25 30 33 30 28 26 17 6 7 5 4 7 5 4 8 22 45 55 54 52 57 67 74 64 52 50 60 62 48 41 19 14 15 11 9 3 4 12 15
30 28 35 33 35 23 15 14 10 8 19 21 30 39 41 42 39 32 31 32 32 27 12 7 7 7 7 10 11 34 56 50 66 73 72 70 68 65 48 39 43 50 51 47 45 44 34 18 9 7 4 5 9 12
26 30 34 41 40 11 9 8 11 10 9 8 19 30 30 35 40 39 35 33 34 20 14 8 11 26 36 50 48 50 50 55 59 63 70 60 59 52 50 36 46 43 38 41 33 38 40 34 27 25 18 12 3 4
29 33 42 42 24 6 6 8 10 10 12 12 20 26 20 29 35 37 37 27 15 11 11 24 39 50 50 47 46 47 48 41 46 50 56 51 42 48 36 26 31 51 55 50 39 38 40 33 26 29 25 23 22 12
44 49 38 27 7 7 9 12 9 10 10 16 24 14 15 10 10 13 14 13 11 23 35 45 48 48 44 40 33 34 35 38 38 31 31 29 34 29 32 28 32 24 18 38 38 34 28 25 22 22 24 36 38 28
49 38 18 11 8 8 5 8 7 7 5 7 8 7 8 7 7 3 6 9 11 18 19 20 20 23 24 23 23 19 23 19 17 30 21 23 28 24 21 29 31 28 29 27 26 25 30 29 24 25 27 30 35 37
40 15 9 13 11 5 5 7 10 7 7 6 5 7 7 6 7 4 4 7 6 7 9 7 9 11 7 7 10 10 19 16 20 24 25 28 24 27 21 25 27 23 23 26 23 23 26 26 26 27 20 24 32 37
10 9 8 7 9 6 5 5 7 5 7 8 5 7 7 6 3 3 4 6 5 7 7 4 9 14 15 18 11 17 14 18 22 25 23 24 20 21 24 20 19 19 21 27 31 28 27 24 27 28 26 23 29 31
5 12 15 19 9 9 7 4 6 3 6 6 9 5 4 3 3 6 4 4 7 9 11 9 17 21 19 19 19 24 26 24 22 16 12 19 27 31 30 30 30 27 28 29 32 32 28 25 24 29 34 31 29 28
6 9 13 17 10 8 7 12 15 10 7 6 2 3 3 4 5 5 3 4 9 16 9 5 3 11 20 29 38 27 21 16 15 8 9 16 19 24 32 35 35 31 28 31 33 34 31 26 26 29 32 32 32 33
9 7 10 12 14 18 6 4 4 7 7 7 7 3 3 4 5 7 6 20 42 26 17 13 13 25 31 38 41 30 17 12 10 7 20 22 24 22 24 28 28 26 29 34 35 35 34 33 30 30 33 40 44 39
9 10 9 10 11 16 17 14 11 10 5 6 9 7 8 13 22 36 51 58 51 34 31 32 33 39 48 45 16 12 8 10 12 10 7 8 24 23 30 28 26 26 26 32 39 39 40 42 42 41 41 41 39 37
11 17 11 9 9 9 14 21 23 27 25 28 25 30 43 46 45 42 37 27 21 27 35 45 47 40 27 9 8 10 12 17 19 19 2 21 29 24 20 21 24 26 30 36 45 49 52 55 57 56 54 51 49 48
8 16 11 11 10 24 36 34 37 41 43 46 43 45 48 51 33 21 22 20 28 35 39 35 25 13 11 11 9 6 3 6 18 24 31 37 34 27 26 28 30 34 37 36 32 36 40 44 47 48 49 50 51 51
13 18 11 7 9 20 21 33 40 38 42 39 40 31 18 13 6 9 16 25 26 22 17 14 8 8 9 9 15 21 29 29 28 36 33 37 26 22 27 33 31 28 24 23 23 23 26 30 29 30 31 32 34 33
25 22 22 21 11 6 4 10 4 10 11 2 2 4 9 15 10 11 12 12 10 10 6 12 20 26 39 39 37 39 34 34 35 36 33 27 27 31 36 32 25 22 19 23 21 16 18 25 25 24 25 22 19 18
Wind_Direction_500mb
305 307 312 317 322 322 321 324 332 331 337 341 346 349 351 354 357 1 343 336 339 286 294 244 190 229 253 239 159 310 349 343 35 58 79 293 292 300 298 274 268 226 238 268 292 250 270 348 343 51 269 307 281 307
297 301 308 313 317 320 320 324 327 329 330 336 342 345 349 353 354 354 354 339 322 282 272 283 283 298 255 275 257 238 227 223 186 89 62 116 293 302 220 272 303 281 192 242 204 249 280 299 263 293 280 279 278 281
293 295 300 305 311 317 317 320 320 322 326 330 337 346 350 351 350 348 346 343 348 312 303 286 199 203 344 203 197 227 233 218 206 203 165 169 236 138 239 246 252 283 268 248 331 265 269 301 305 296 285 265 272 279
286 288 291 297 303 313 318 318 322 318 319 322 328 338 342 344 343 341 341 352 4 332 317 283 274 290 285 234 233 234 254 265 248 197 176 171 209 196 221 231 227 239 237 241 260 280 282 287 318 335 325 287 275 272
281 284 287 293 295 302 314 311 316 318 318 313 320 332 333 336 336 331 336 348 12 15 298 292 328 35 30 297 234 240 235 231 197 180 176 219 218 184 237 248 264 214 220 186 251 270 263 274 296 309 313 302 279 279
275 281 286 291 291 289 304 308 301 303 311 308 315 326 331 334 336 335 280 329 338 332 313 320 320 315 14 29 359 236 229 221 228 210 210 218 229 204 251 251 244 262 272 269 265 277 277 276 289 290 292 299 300 288
270 280 290 291 284 277 282 300 289 287 296 301 314 321 329 333 25 57 25 319 302 327 304 310 321 325 1 352 321 296 261 267 264 254 221 213 220 202 234 261 276 310 327 327 347 319 284 274 274 293 296 295 294 290
265 280 293 287 276 276 278 287 282 279 285 297 310 318 329 358 77 3 347 339 319 290 272 347 284 321 353 321 317 308 302 287 243 249 225 202 202 219 256 260 320 326 337 320 331 328 315 303 292 287 309 277 265 277
260 276 286 281 272 276 284 268 274 273 282 293 309 319 316 18 350 330 331 334 317 251 260 4 273 281 335 307 297 307 320 309 273 241 252 169 208 226 234 303 317 328 323 313 316 316 311 310 292 300 322 314 275 275
257 272 282 278 270 278 281 275 258 259 267 295 311 339 358 331 322 322 350 337 300 250 225 227 222 257 307 329 300 337 343 303 289 245 249 216 244 249 220 334 316 302 304 301 292 303 291 300 301 298 302 315 315 278
252 267 275 273 270 280 277 246 244 226 271 284 290 277 294 319 314 309 311 294 275 272 219 242 238 263 289 240 287 344 306 290 297 268 272 257 247 133 323 308 301 291 296 289 274 275 275 278 282 286 284 293 310 275
244 253 258 266 272 272 235 218 212 214 222 280 292 294 282 281 270 347 272 284 211 245 216 207 257 235 270 273 286 320 287 321 261 338 290 272 271 302 310 305 305 306 304 302 273 263 264 260 258 267 275 278 290 305
241 246 250 256 260 231 200 203 212 217 265 293 306 294 254 229 15 200 222 245 254 222 229 236 234 217 228 269 275 311 268 246 328 320 261 264 286 309 316 318 319 331 333 315 291 264 254 246 242 246 252 257 271 276
235 237 240 241 236 214 204 193 193 213 214 252 244 287 190 230 240 203 207 231 318 295 295 286 255 189 216 267 231 278 278 316 294 287 263 286 308 312 321 333 340 344 345 337 325 292 254 240 234 239 248 256 266 269
222 225 229 224 210 199 199 196 197 198 218 243 227 238 226 236 257 278 278 279 292 298 332 319 122 194 190 263 205 312 299 291 306 256 269 300 317 322 327 340 346 352 352 346 337 311 278 252 235 243 248 253 257 258
220 221 226 219 202 199 205 207 191 184 225 235 233 264 259 281 288 316 340 291 313 334 312 268 92 313 204 225 247 241 274 262 264 253 292 309 320 333 340 353 356 356 355 351 349 316 272 253 244 248 253 246 248 254
214 220 222 204 194 199 192 174 164 205 229 231 246 245 261 284 276 287 310 313 327 332 287 35 281 232 69 238 247 170 231 236 278 298 317 325 336 338 337 343 355 5 5 0 6 7 345 236 220 229 239 225 238 239
218 214 197 182 181 180 179 167 194 228 243 245 244 260 253 256 275 284 294 290 300 298 246 218 226 211 231 226 231 244 256 312 322 322 328 338 334 338 336 337 344 346 0 6 4 357 41 84 152 176 241 249 225 220
203 197 177 176 176 167 177 191 209 250 243 261 265 271 278 282 283 282 284 280 281 278 265 219 229 201 234 226 264 289 305 317 321 325 324 323 331 341 321 336 353 349 357 16 28 44 39 39 65 119 143 211 222 229
178 176 175 181 173 155 165 192 210 255 261 268 277 282 280 275 279 277 278 270 269 270 217 218 218 249 263 283 296 301 302 309 313 319 324 336 345 350 3 5 19 12 19 35 49 29 28 49 65 70 70 85 51 196
172 163 174 172 172 166 203 203 228 246 282 265 279 292 279 271 264 265 267 266 252 216 234 247 262 275 282 289 294 296 303 307 311 313 317 324 340 351 14 64 62 34 25 22 21 26 41 47 59 64 57 70 68 87
164 165 165 172 164 194 254 223 242 298 266 268 287 259 264 279 267 247 231 211 233 253 257 268 272 280 289 295 299 294 298 304 308 320 332 334 343 357 14 24 24 24 36 15 17 28 42 62 64 58 66 75 72 79
161 162 146 158 176 216 253 215 234 237 249 266 281 267 251 253 259 275 236 231 247 261 274 274 276 280 291 298 302 315 319 309 340 351 356 4 6 6 18 22 13 12 30 36 40 38 37 52 87 67 83 84 82 86
156 145 163 176 189 223 250 234 215 248 255 259 248 271 280 263 292 255 256 262 252 272 278 299 316 324 336 1 340 357 25 25 11 354 357 1 20 31 27 22 21 19 29 32 34 37 45 53 54 58 82 101 96 98
149 169 173 169 196 210 237 275 209 219 245 231 265 274 273 304 338 278 248 295 28 32 38 43 60 29 35 33 13 29 36 21 6 2 15 11 23 14 19 28 29 40 59 52 55 54 55 50 48 60 79 87 102 107
163 185 176 190 198 190 219 248 173 259 239 251 236 255 349 358 288 267 262 286 279 3 9 35 41 26 25 16 2 1 354 353 351 354 43 49 35 41 48 53 56 71 75 72 57 49 56 66 67 72 80 89 92 97
183 204 207 210 213 211 242 248 218 233 244 240 250 82 0 276 251 262 134 315 324 349 5 23 11 356 349 354 346 330 330 333 334 345 116 52 49 65 62 62 68 74 75 69 57 49 53 74 87 83 84 88 90 92
229 246 194 201 210 225 224 277 254 229 247 205 135 97 250 234 259 317 324 331 337 310 291 293 296 313 321 317 320 317 314 318 356 103 114 96 76 86 77 74 75 75 79 67 58 56 65 70 80 88 90 92 92 97
235 218 213 238 219 205 213 213 226 238 197 143 157 208 235 212 261 289 305 304 309 294 279 285 295 300 301 303 280 295 252 245 235 217 294 124 122 93 89 85 86 82 80 77 67 67 72 76 81 86 89 94 98 100
243 205 209 229 199 222 222 219 243 257 273 274 279 277 282 289 302 310 301 297 268 273 286 298 305 308 313 279 241 267 249 241 246 248 205 151 135 125 109 101 95 101 93 91 83 86 80 80 82 84 86 89 91 93
248 190 206 232 252 251 252 261 272 278 281 281 283 278 279 294 298 271 253 274 298 301 301 300 297 262 248 236 258 259 277 138 129 133 140 140 133 125 121 122 109 103 100 93 96 95 94 94 95 93 92 92 92 93
212 214 216 222 254 284 280 268 267 264 268 268 267 267 253 206 253 268 284 302 300 308 307 308 292 231 218 139 139 118 124 118 126 127 128 132 135 143 140 132 115 114 120 112 100 100 97 87 94 97 99 102 101 94
221 237 241 266 271 265 240 245 293 319 304 323 55 190 255 293 270 266 273 275 286 281 287 108 99 103 123 122 119 115 116 116 128 130 128 127 135 138 133 127 124 134 108 100 103 114 119 106 97 108 106 94 97 101
Wind_Speed_850mb
28 26 26 26 26 25 26 27 29 22 24 26 28 29 30 28 26 23 17 26 20 10 33 12 6 8 7 5 5 8 10 8 8 8 4 3 0 4 5 6 6 6 4 5 3 6 12 21 16 3 8 11 13 19
27 25 24 24 24 24 24 25 26 23 23 24 24 27 29 28 27 27 23 25 24 22 21 40 37 6 14 33 28 8 4 4 6 7 0 2 3 4 3 6 7 5 7 5 10 9 10 33 26 32 32 34 26 27
27 25 23 23 24 24 23 26 26 23 22 21 21 23 27 29 29 30 32 28 31 15 27 7 8 8 21 12 19 9 6 7 10 11 12 4 5 6 5 9 6 7 5 7 5 8 16 47 63 55 42 51 44 34
27 26 24 23 23 25 25 25 24 24 21 20 19 22 26 28 30 33 27 19 22 13 8 9 10 30 15 14 25 35 34 30 20 20 8 6 7 20 8 11 12 15 6 9 14 29 54 67 38 44 45 43 50 47
28 27 27 27 26 26 24 24 26 21 20 19 19 25 30 29 29 27 12 8 13 14 8 28 22 14 18 6 24 35 37 29 21 12 6 7 9 4 10 2 11 18 12 8 14 40 34 55 52 66 66 63 50 41
28 29 29 30 29 24 20 20 21 21 21 18 21 28 30 33 29 17 2 2 11 12 11 8 20 12 20 8 2 10 20 32 30 16 12 10 11 9 5 7 20 34 37 45 46 64 56 64 67 67 60 49 44 37
28 30 30 30 24 20 18 15 19 20 22 19 22 27 30 29 12 11 6 14 16 17 5 14 22 14 27 18 17 13 23 16 23 20 12 10 12 16 5 15 41 36 28 34 21 30 42 50 51 44 50 44 45 37
28 29 28 23 21 20 19 19 23 22 20 19 22 25 24 6 2 13 21 16 14 6 4 3 10 19 18 12 13 9 15 14 8 7 3 7 4 10 8 11 13 18 37 14 42 43 37 37 36 37 38 33 38 51
28 28 26 23 21 20 20 21 19 19 19 18 20 22 7 2 8 20 27 16 5 2 1 1 3 7 19 8 11 10 7 4 3 4 6 6 5 9 10 2 19 33 34 55 65 58 40 30 31 27 31 27 34 42
28 27 24 21 20 20 18 17 18 16 14 14 16 6 2 11 21 22 6 6 2 3 5 8 8 6 9 9 7 12 7 5 5 5 4 6 7 34 6 28 53 52 58 54 50 52 36 45 34 27 28 30 39 30
27 23 21 19 18 20 17 12 15 11 7 6 4 3 7 19 10 4 4 3 3 5 9 10 14 7 6 2 5 5 5 4 5 1 4 5 5 2 37 67 77 73 72 62 52 54 52 47 45 38 32 30 26 19
27 22 19 19 19 16 9 12 14 11 7 5 12 15 8 3 3 2 4 6 6 7 9 10 9 12 7 6 3 4 4 5 8 18 5 6 3 33 61 75 78 75 65 57 43 49 50 48 42 38 31 35 29 16
26 21 20 20 19 15 16 17 14 12 9 8 2 3 2 4 5 5 4 5 5 8 10 11 8 6 5 4 5 2 4 8 27 2 5 6 44 65 73 73 74 69 57 37 31 35 42 43 41 39 38 36 34 25
23 23 22 20 18 19 20 19 14 10 6 3 3 6 7 7 9 9 8 5 11 7 24 25 10 9 4 1 2 4 5 6 5 5 7 12 68 79 82 77 66 61 51 37 28 20 28 33 35 37 36 33 27 29
26 25 25 23 20 21 21 20 16 12 5 5 6 7 11 19 16 18 25 23 18 19 24 9 2 7 3 2 3 3 5 5 3 7 11 53 78 89 76 68 59 50 40 42 33 24 24 25 30 34 35 33 30 26
27 26 24 22 22 24 21 23 19 14 5 7 12 7 16 10 14 17 28 16 6 17 23 4 4 2 4 2 2 3 3 5 7 10 58 75 80 80 71 57 58 55 51 48 43 29 25 32 33 33 28 30 28 28
29 29 25 24 24 25 25 23 14 10 9 8 13 20 32 36 29 27 12 17 23 17 4 1 3 5 3 2 3 6 5 8 47 61 69 64 70 72 64 59 55 55 59 55 46 29 10 18 22 23 21 20 24 21
37 32 28 30 29 31 32 16 9 8 12 20 15 21 20 25 30 33 30 28 26 17 6 7 5 4 7 5 4 8 22 45 55 54 52 57 67 74 64 52 50 60 62 48 41 19 14 15 11 9 3 4 12 15
30 28 35 33 35 23 15 14 10 8 19 21 30 39 41 42 39 32 31 32 32 27 12 7 7 7 7 10 11 34 56 50 66 73 72 70 68 65 48 39 43 50 51 47 45 44 34 18 9 7 4 5 9 12
26 30 34 41 40 11 9 8 11 10 9 8 19 30 30 35 40 39 35 33 34 20 14 8 11 26 36 50 48 50 50 55 59 63 70 60 59 52 50 36 46 43 38 41 33 38 40 34 27 25 18 12 3 4
29 33 42 42 24 6 6 8 10 10 12 12 20 26 20 29 35 37 37 27 15 11 11 24 39 50 50 47 46 47 48 41 46 50 56 51 42 48 36 26 31 51 55 50 39 38 40 33 26 29 25 23 22 12
44 49 38 27 7 7 9 12 9 10 10 16 24 14 15 10 10 13 14 13 11 23 35 45 48 48 44 40 33 34 35 38 38 31 31 29 34 29 32 28 32 24 18 38 38 34 28 25 22 22 24 36 38 28
49 38 18 11 8 8 5 8 7 7 5 7 8 7 8 7 7 3 6 9 11 18 19 20 20 23 24 23 23 19 23 19 17 30 21 23 28 24 21 29 31 28 29 27 26 25 30 29 24 25 27 30 35 37
40 15 9 13 11 5 5 7 10 7 7 6 5 7 7 6 7 4 4 7 6 7 9 7 9 11 7 7 10 10 19 16 20 24 25 28 24 27 21 25 27 23 23 26 23 23 26 26 26 27 20 24 32 37
10 9 8 7 9 6 5 5 7 5 7 8 5 7 7 6 3 3 4 6 5 7 7 4 9 14 15 18 11 17 14 18 22 25 23 24 20 21 24 20 19 19 21 27 31 28 27 24 27 28 26 23 29 31
5 12 15 19 9 9 7 4 6 3 6 6 9 5 4 3 3 6 4 4 7 9 11 9 17 21 19 19 19 24 26 24 22 16 12 19 27 31 30 30 30 27 28 29 32 32 28 25 24 29 34 31 29 28
6 9 13 17 10 8 7 12 15 10 7 6 2 3 3 4 5 5 3 4 9 16 9 5 3 11 20 29 38 27 21 16 15 8 9 16 19 24 32 35 35 31 28 31 33 34 31 26 26 29 32 32 32 33
9 7 10 12 14 18 6 4 4 7 7 7 7 3 3 4 5 7 6 20 42 26 17 13 13 25 31 38 41 30 17 12 10 7 20 22 24 22 24 28 28 26 29 34 35 35 34 33 30 30 33 40 44 39
9 10 9 10 11 16 17 14 11 10 5 6 9 7 8 13 22 36 51 58 51 34 31 32 33 39 48 45 16 12 8 10 12 10 7 8 24 23 30 28 26 26 26 32 39 39 40 42 42 41 41 41 39 37
11 17 11 9 9 9 14 21 23 27 25 28 25 30 43 46 45 42 37 27 21 27 35 45 47 40 27 9 8 10 12 17 19 19 2 21 29 24 20 21 24 26 30 36 45 49 52 55 57 56 54 51 49 48
8 16 11 11 10 24 36 34 37 41 43 46 43 45 48 51 33 21 22 20 28 35 39 35 25 13 11 11 9 6 3 6 18 24 31 37 34 27 26 28 30 34 37 36 32 36 40 44 47 48 49 50 51 51
13 18 11 7 9 20 21 33 40 38 42 39 40 31 18 13 6 9 16 25 26 22 17 14 8 8 9 9 15 21 29 29 28 36 33 37 26 22 27 33 31 28 24 23 23 23 26 30 29 30 31 32 34 33
25 22 22 21 11 6 4 10 4 10 11 2 2 4 9 15 10 11 12 12 10 10 6 12 20 26 39 39 37 39 34 34 35 36 33 27 27 31 36 32 25 22 19 23 21 16 18 25 25 24 25 22 19 18
Wind_Direction_850mb
305 307 312 317 322 322 321 324 332 331 337 341 346 349 351 354 357 1 343 336 339 286 294 244 190 229 253 239 159 310 349 343 35 58 79 293 292 300 298 274 268 226 238 268 292 250 270 348 343 51 269 307 281 307
297 301 308 313 317 320 320 324 327 329 330 336 342 345 349 353 354 354 354 339 322 282 272 283 283 298 255 275 257 238 227 223 186 89 62 116 293 302 220 272 303 281 192 242 204 249 280 299 263 293 280 279 278 281
293 295 300 305 311 317 317 320 320 322 326 330 337 346 350 351 350 348 346 343 348 312 303 286 199 203 344 203 197 227 233 218 206 203 165 169 236 138 239 246 252 283 268 248 331 265 269 301 305 296 285 265 272 279
286 288 291 297 303 313 318 318 322 318 319 322 328 338 342 344 343 341 341 352 4 332 317 283 274 290 285 234 233 234 254 265 248 197 176 171 209 196 221 231 227 239 237 241 260 280 282 287 318 335 325 287 275 272
281 284 287 293 295 302 314 311 316 318 318 313 320 332 333 336 336 331 336 348 12 15 298 292 328 35 30 297 234 240 235 231 197 180 176 219 218 184 237 248 264 214 220 186 251 270 263 274 296 309 313 302 279 279
275 281 286 291 291 289 304 308 301 303 311 308 315 326 331 334 336 335 280 329 338 332 313 320 320 315 14 29 359 236 229 221 228 210 210 218 229 204 251 251 244 262 272 269 265 277 277 276 289 290 292 299 300 288
270 280 290 291 284 277 282 300 289 287 296 301 314 321 329 333 25 57 25 319 302 327 304 310 321 325 1 352 321 296 261 267 264 254 221 213 220 202 234 261 276 310 327 327 347 319 284 274 274 293 296 295 294 290
265 280 293 287 276 276 278 287 282 279 285 297 310 318 329 358 77 3 347 339 319 290 272 347 284 321 353 321 317 308 302 287 243 249 225 202 202 219 256 260 320 326 337 320 331 328 315 303 292 287 309 277 265 277
260 276 286 281 272 276 284 268 274 273 282 293 309 319 316 18 350 330 331 334 317 251 260 4 273 281 335 307 297 307 320 309 273 241 252 169 208 226 234 303 317 328 323 313 316 316 311 310 292 300 322 314 275 275
257 272 282 278 270 278 281 275 258 259 267 295 311 339 358 331 322 322 350 337 300 250 225 227 222 257 307 329 300 337 343 303 289 245 249 216 244 249 220 334 316 302 304 301 292 303 291 300 301 298 302 315 315 278
252 267 275 273 270 280 277 246 244 226 271 284 290 277 294 319 314 309 311 294 275 272 219 242 238 263 289 240 287 344 306 290 297 268 272 257 247 133 323 308 301 291 296 289 274 275 275 278 282 286 284 293 310 275
244 253 258 266 272 272 235 218 212 214 222 280 292 294 282 281 270 347 272 284 211 245 216 207 257 235 270 273 286 320 287 321 261 338 290 272 271 302 310 305 305 306 304 302 273 263 264 260 258 267 275 278 290 305
241 246 250 256 260 231 200 203 212 217 265 293 306 294 254 229 15 200 222 245 254 222 229 236 234 217 228 269 275 311 268 246 328 320 261 264 286 309 316 318 319 331 333 315 291 264 254 246 242 246 252 257 271 276
235 237 240 241 236 214 204 193 193 213 214 252 244 287 190 230 240 203 207 231 318 295 295 286 255 189 216 267 231 278 278 316 294 287 263 286 308 312 321 333 340 344 345 337 325 292 254 240 234 239 248 256 266 269
222 225 229 224 210 199 199 196 197 198 218 243 227 238 226 236 257 278 278 279 292 298 332 319 122 194 190 263 205 312 299 291 306 256 269 300 317 322 327 340 346 352 352 346 337 311 278 252 235 243 248 253 257 258
220 221 226 219 202 199 205 207 191 184 225 235 233 264 259 281 288 316 340 291 313 334 312 268 92 313 204 225 247 241 274 262 264 253 292 309 320 333 340 353 356 356 355 351 349 316 272 253 244 248 253 246 248 254
214 220 222 204 194 199 192 174 164 205 229 231 246 245 261 284 276 287 310 313 327 332 287 35 281 232 69 238 247 170 231 236 278 298 317 325 336 338 337 343 355 5 5 0 6 7 345 236 220 229 239 225 238 239
218 214 197 182 181 180 179 167 194 228 243 245 244 260 253 256 275 284 294 290 300 298 246 218 226 211 231 226 231 244 256 312 322 322 328 338 334 338 336 337 344 346 0 6 4 357 41 84 152 176 241 249 225 220
203 197 177 176 176 167 177 191 209 250 243 261 265 271 278 282 283 282 284 280 281 278 265 219 229 201 234 226 264 289 305 317 321 325 324 323 331 341 321 336 353 349 357 16 28 44 39 39 65 119 143 211 222 229
178 176 175 181 173 155 165 192 210 255 261 268 277 282 280 275 279 277 278 270 269 270 217 218 218 249 263 283 296 301 302 309 313 319 324 336 345 350 3 5 19 12 19 35 49 29 28 49 65 70 70 85 51 196
172 163 174 172 172 166 203 203 228 246 282 265 279 292 279 271 264 265 267 266 252 216 234 247 262 275 282 289 294 296 303 307 311 313 317 324 340 351 14 64 62 34 25 22 21 26 41 47 59 64 57 70 68 87
164 165 165 172 164 194 254 223 242 298 266 268 287 259 264 279 267 247 231 211 233 253 257 268 272 280 289 295 299 294 298 304 308 320 332 334 343 357 14 24 24 24 36 15 17 28 42 62 64 58 66 75 72 79
161 162 146 158 176 216 253 215 234 237 249 266 281 267 251 253 259 275 236 231 247 261 274 274 276 280 291 298 302 315 319 309 340 351 356 4 6 6 18 22 13 12 30 36 40 38 37 52 87 67 83 84 82 86
156 145 163 176 189 223 250 234 215 248 255 259 248 271 280 263 292 255 256 262 252 272 278 299 316 324 336 1 340 357 25 25 11 354 357 1 20 31 27 22 21 19 29 32 34 37 45 53 54 58 82 101 96 98
149 169 173 169 196 210 237 275 209 219 245 231 265 274 273 304 338 278 248 295 28 32 38 43 60 29 35 33 13 29 36 21 6 2 15 11 23 14 19 28 29 40 59 52 55 54 55 50 48 60 79 87 102 107
163 185 176 190 198 190 219 248 173 259 239 251 236 255 349 358 288 267 262 286 279 3 9 35 41 26 25 16 2 1 354 353 351 354 43 49 35 41 48 53 56 71 75 72 57 49 56 66 67 72 80 89 92 97
183 204 207 210 213 211 242 248 218 233 244 240 250 82 0 276 251 262 134 315 324 349 5 23 11 356 349 354 346 330 330 333 334 345 116 52 49 65 62 62 68 74 75 69 57 49 53 74 87 83 84 88 90 92
229 246 194 201 210 225 224 277 254 229 247 205 135 97 250 234 259 317 324 331 337 310 291 293 296 313 321 317 320 317 314 318 356 103 114 96 76 86 77 74 75 75 79 67 58 56 65 70 80 88 90 92 92 97
235 218 213 238 219 205 213 213 226 238 197 143 157 208 235 212 261 289 305 304 309 294 279 285 295 300 301 303 280 295 252 245 235 217 294 124 122 93 89 85 86 82 80 77 67 67 72 76 81 86 89 94 98 100
243 205 209 229 199 222 222 219 243 257 273 274 279 277 282 289 302 310 301 297 268 273 286 298 305 308 313 279 241 267 249 241 246 248 205 151 135 125 109 101 95 101 93 91 83 86 80 80 82 84 86 89 91 93
248 190 206 232 252 251 252 261 272 278 281 281 283 278 279 294 298 271 253 274 298 301 301 300 297 262 248 236 258 259 277 138 129 133 140 140 133 125 121 122 109 103 100 93 96 95 94 94 95 93 92 92 92 93
212 214 216 222 254 284 280 268 267 264 268 268 267 267 253 206 253 268 284 302 300 308 307 308 292 231 218 139 139 118 124 118 126 127 128 132 135 143 140 132 115 114 120 112 100 100 97 87 94 97 99 102 101 94
221 237 241 266 271 265 240 245 293 319 304 323 55 190 255 293 270 266 273 275 286 281 287 108 99 103 123 122 119 115 116 116 128 130 128 127 135 138 133 127 124 134 108 100 103 114 119 106 97 108 106 94 97 101